Location: Saint Mary
(48.7436°N, 113.4291°W)
Time: 23:07:03
(UTC+00:00)

ARIANE 6 FM1 Upper Stage - Pass Details

Date: 12 December 2025
Orbit: 522 x 610 km, 62.0° (Epoch: 18 January)

Event Time Altitude Azimuth Distance (km) Brightness Sun altitude
Rises 14:32:07 0° 205° (SSW) 2,687 6.2 -7.3°
Reaches altitude 10° 14:34:24 10° 199° (SSW) 1,787 5.4 -6.9°
Maximum altitude 14:38:12 44° 127° (SE) 745 4.0 -6.4°
Drops below altitude 10° 14:41:59 10° 55° (NE) 1,771 5.6 -5.8°
Sets 14:44:14 0° 49° (NE) 2,660 6.4 -5.5°
